GW3831 Weather Reports


time (UTC)temp
C
wind
direction
speed
KPH
gust
KPH
rain 1hr
cm
rain 24hr
cm
rain mn
cm
humidity
%
barometer
mb
20260510190606 12 271 3.2 8.0 0.00 0.00 0.00 74 1010.5
20260510190104 12 280 3.2 11.3 0.00 0.00 0.00 74 1010.5
20260510185605 13 278 4.8 9.7 0.00 0.00 0.00 73 1010.5
20260510184604 13 286 3.2 8.0 0.00 0.00 0.00 73 1010.4
20260510183605 13 274 3.2 8.0 0.00 0.00 0.00 73 1010.2
20260510183104 13 215 1.6 8.0 0.00 0.00 0.00 73 1010.5
20260510182604 13 302 4.8 9.7 0.00 0.00 0.00 72 1010.5
20260510181604 13 301 3.2 14.5 0.00 0.00 0.00 72 1010.5
20260510181104 13 288 3.2 14.5 0.00 0.00 0.00 71 1010.5
20260510180104 14 30 0.0 9.7 0.00 0.00 0.00 71 1010.3
20260510175604 14 234 3.2 8.0 0.00 0.00 0.00 70 1010.4
20260510175104 14 250 3.2 8.0 0.00 0.00 0.00 70 1010.5
20260510174604 15 296 3.2 9.7 0.00 0.00 0.00 69 1010.5
20260510174104 15 274 3.2 14.5 0.00 0.00 0.00 69 1010.5
20260510173604 15 299 3.2 14.5 0.00 0.00 0.00 68 1010.8
20260510173105 15 278 3.2 8.0 0.00 0.00 0.00 68 1010.6
20260510172104 15 292 4.8 9.7 0.00 0.00 0.00 67 1010.8
20260510170605 16 286 3.2 8.0 0.00 0.00 0.00 65 1010.7
20260510170104 16 290 4.8 11.3 0.00 0.00 0.00 65 1010.7
20260510165604 16 303 4.8 11.3 0.00 0.00 0.00 64 1010.5
20260510165106 16 274 4.8 11.3 0.00 0.00 0.00 64 1010.5
20260510164604 16 289 4.8 11.3 0.00 0.00 0.00 64 1010.5
20260510164104 16 288 4.8 12.9 0.00 0.00 0.00 64 1010.6
20260510163104 16 316 4.8 14.5 0.00 0.00 0.00 64 1010.7
20260510162604 16 305 3.2 14.5 0.00 0.00 0.00 64 1010.8
20260510161604 16 291 3.2 9.7 0.00 0.00 0.00 64 1010.8
20260510161104 16 280 3.2 12.9 0.00 0.00 0.00 63 1011.2
20260510160604 17 310 4.8 9.7 0.00 0.00 0.00 63 1011.2
20260510160104 17 287 3.2 14.5 0.00 0.00 0.00 62 1011.2
20260510155604 17 325 3.2 14.5 0.00 0.00 0.00 62 1011.2
20260510155104 17 275 3.2 9.7 0.00 0.00 0.00 61 1011.2
20260510154604 17 231 3.2 9.7 0.00 0.00 0.00 62 1011.4
20260510153604 17 303 4.8 9.7 0.00 0.00 0.00 61 1011.2
20260510153104 17 291 3.2 14.5 0.00 0.00 0.00 59 1011.2
20260510152604 18 341 4.8 11.3 0.00 0.00 0.00 59 1011.2
20260510151604 18 287 4.8 9.7 0.00 0.00 0.00 58 1011.2
20260510145605 18 284 3.2 11.3 0.00 0.00 0.00 57 1011.9
20260510145104 18 277 4.8 9.7 0.00 0.00 0.00 56 1011.9
20260510144604 18 297 3.2 14.5 0.00 0.00 0.00 57 1011.9
20260510144105 18 292 4.8 9.7 0.00 0.00 0.00 57 1011.7
20260510143604 18 291 3.2 8.0 0.00 0.00 0.00 57 1011.9
20260510142605 18 295 3.2 8.0 0.00 0.00 0.00 56 1011.9
20260510142104 18 239 3.2 8.0 0.00 0.00 0.00 56 1011.9
20260510141604 18 155 4.8 14.5 0.00 0.00 0.00 57 1011.9
20260510141122 18 302 3.2 11.3 0.00 0.00 0.00 55 1012.2
20260510135604 18 321 6.4 14.5 0.00 0.00 0.00 54 1012.2
20260510135108 19 309 4.8 14.5 0.00 0.00 0.00 55 1012.2
20260510134604 19 296 3.2 12.9 0.00 0.00 0.00 54 1012.3
20260510134104 19 299 3.2 14.5 0.00 0.00 0.00 53 1012.5
20260510133605 19 305 1.6 9.7 0.00 0.00 0.00 53 1012.2
20260510132604 19 299 6.4 14.5 0.00 0.00 0.00 52 1012.5
20260510132110 19 242 4.8 14.5 0.00 0.00 0.00 52 1012.4
20260510131615 18 305 3.2 16.1 0.00 0.00 0.00 53 1012.5
20260510130609 18 281 4.8 14.5 0.00 0.00 0.00 52 1012.9
20260510125604 19 260 3.2 11.3 0.00 0.00 0.00 51 1012.6
20260510125107 18 316 6.4 12.9 0.00 0.00 0.00 50 1012.9
20260510124106 19 256 3.2 14.5 0.00 0.00 0.00 48 1013.5
20260510123604 19 309 8.0 14.5 0.00 0.00 0.00 48 1012.9
20260510123104 19 289 3.2 20.9 0.00 0.00 0.00 50 1013.2
20260510122604 19 298 6.4 9.7 0.00 0.00 0.00 48 1012.9
20260510122104 19 224 3.2 19.3 0.00 0.00 0.00 48 1013.2
20260510121604 18 293 8.0 19.3 0.00 0.00 0.00 50 1013.4
20260510121104 20 305 6.4 9.7 0.00 0.00 0.00 48 1013.5
20260510120605 20 290 1.6 8.0 0.00 0.00 0.00 48 1013.5
20260510120105 20 23 1.6 4.8 0.00 0.00 0.00 48 1013.5
20260510115604 19 272 1.6 8.0 0.00 0.00 0.00 49 1013.5
20260510115104 18 259 3.2 20.9 0.00 0.00 0.00 50 1013.4
20260510114604 19 279 3.2 9.7 0.00 0.00 0.00 51 1013.5
20260510113604 19 278 3.2 9.7 0.00 0.00 0.00 50 1013.5
20260510113104 18 285 4.8 9.7 0.00 0.00 0.00 50 1013.5
20260510112104 18 283 4.8 14.5 0.00 0.00 0.00 52 1013.8
20260510111604 18 279 4.8 14.5 0.00 0.00 0.00 52 1013.9
20260510110604 18 288 4.8 9.7 0.00 0.00 0.00 52 1014.0
20260510110104 18 1 3.2 12.9 0.00 0.00 0.00 52 1014.1
20260510105604 18 287 3.2 8.0 0.00 0.00 0.00 52 1014.2
20260510105104 17 292 4.8 12.9 0.00 0.00 0.00 57 1013.9
20260510103105 18 280 4.8 14.5 0.00 0.00 0.00 55 1014.2
20260510102606 18 267 3.2 11.3 0.00 0.00 0.00 54 1014.2
20260510101604 18 273 8.0 11.3 0.00 0.00 0.00 55 1014.2
20260510100104 18 299 3.2 11.3 0.00 0.00 0.00 54 1014.5
20260510095609 18 308 4.8 9.7 0.00 0.00 0.00 52 1014.6
20260510095104 18 295 3.2 8.0 0.00 0.00 0.00 52 1014.4
20260510094604 18 225 1.6 4.8 0.00 0.00 0.00 51 1014.8
20260510094105 17 273 3.2 9.7 0.00 0.00 0.00 53 1014.6
20260510093604 17 297 6.4 12.9 0.00 0.00 0.00 56 1014.6
20260510093105 17 297 6.4 11.3 0.00 0.00 0.00 56 1014.8
20260510092604 17 300 4.8 8.0 0.00 0.00 0.00 56 1014.9
20260510092104 17 295 3.2 11.3 0.00 0.00 0.00 58 1014.9
20260510091604 16 278 4.8 11.3 0.00 0.00 0.00 58 1014.7
20260510090605 16 278 3.2 9.7 0.00 0.00 0.00 59 1014.8
20260510090104 16 315 3.2 11.3 0.00 0.00 0.00 59 1014.6
20260510085604 16 321 6.4 11.3 0.00 0.00 0.00 59 1014.6
20260510085104 17 293 3.2 11.3 0.00 0.00 0.00 59 1014.9
20260510084604 17 282 1.6 9.7 0.00 0.00 0.00 59 1014.6
20260510083604 16 262 3.2 9.7 0.00 0.00 0.00 62 1014.9
20260510083104 16 321 4.8 9.7 0.00 0.00 0.00 63 1014.9
20260510082606 16 284 3.2 11.3 0.00 0.00 0.00 62 1015.2
20260510081604 15 263 3.2 9.7 0.00 0.00 0.00 62 1015.2
20260510081106 15 246 3.2 11.3 0.00 0.00 0.00 64 1015.2
20260510080105 15 288 3.2 9.7 0.00 0.00 0.00 63 1015.0
20260510075104 15 285 4.8 8.0 0.00 0.00 0.00 63 1015.2
20260510074605 15 297 3.2 9.7 0.00 0.00 0.00 63 1015.2
20260510074106 15 298 4.8 9.7 0.00 0.00 0.00 64 1015.2
20260510073604 15 279 3.2 8.0 0.00 0.00 0.00 65 1015.2
20260510073106 15 204 3.2 8.0 0.00 0.00 0.00 65 1015.2
20260510072604 15 278 3.2 8.0 0.00 0.00 0.00 65 1015.2
20260510072104 15 241 1.6 4.8 0.00 0.00 0.00 68 1015.2
20260510071605 14 295 1.6 8.0 0.00 0.00 0.00 68 1015.6
20260510071104 13 209 3.2 8.0 0.00 0.00 0.00 69 1015.2
20260510070604 13 293 3.2 4.8 0.00 0.00 0.00 70 1015.2
20260510070105 13 296 1.6 8.0 0.00 0.00 0.00 71 1015.5
20260510065604 13 312 4.8 9.7 0.00 0.00 0.00 71 1015.2
20260510065105 13 293 4.8 9.7 0.00 0.00 0.00 72 1015.2
20260510064604 13 270 3.2 9.7 0.00 0.00 0.00 74 1015.0
20260510064104 13 274 4.8 9.7 0.00 0.00 0.00 74 1015.2
20260510063606 13 178 1.6 8.0 0.00 0.00 0.00 75 1015.6
20260510061604 12 309 1.6 8.0 0.00 0.00 0.00 79 1015.6
20260510061104 12 272 3.2 4.8 0.00 0.00 0.00 80 1015.6
20260510060104 11 308 1.6 4.8 0.00 0.00 0.00 83 1015.6
20260510055604 11 346 1.6 8.0 0.00 0.00 0.00 83 1015.3
20260510054604 11 292 1.6 4.8 0.00 0.00 0.00 84 1015.2
20260510054104 11 255 3.2 4.8 0.00 0.00 0.00 85 1015.5
20260510053604 11 141 3.2 4.8 0.00 0.00 0.00 85 1015.3
20260510053104 10 297 3.2 9.7 0.00 0.00 0.00 86 1015.6
20260510052606 10 291 1.6 9.7 0.00 0.00 0.00 87 1015.6
20260510051604 10 233 0.0 4.8 0.00 0.00 0.00 87 1015.6
20260510051104 10 256 3.2 9.7 0.00 0.00 0.00 88 1015.5
20260510050604 10 273 3.2 4.8 0.00 0.00 0.00 88 1015.5
20260510050105 10 279 3.2 4.8 0.00 0.00 0.00 89 1015.2
20260510045604 10 313 1.6 4.8 0.00 0.00 0.00 89 1015.2
20260510044104 10 307 1.6 4.8 0.00 0.00 0.00 90 1015.6
20260510043604 10 294 1.6 4.8 0.00 0.00 0.00 90 1015.5
20260510042603 9 321 0.0 4.8 0.00 0.00 0.00 90 1015.3
20260510042104 10 343 1.6 3.2 0.00 0.00 0.00 90 1015.6
20260510041104 10 353 1.6 4.8 0.00 0.00 0.00 90 1015.2
20260510040604 10 281 1.6 3.2 0.00 0.00 0.00 90 1015.5
20260510040104 10 313 3.2 3.2 0.00 0.00 0.00 90 1015.6
20260510035605 10 300 1.6 3.2 0.00 0.00 0.00 90 1015.3
20260510035104 10 334 1.6 3.2 0.00 0.00 0.00 90 1015.2
20260510034605 10 323 0.0 3.2 0.00 0.00 0.00 89 1015.3
20260510034105 10 290 3.2 3.2 0.00 0.00 0.00 89 1015.6
20260510033606 10 313 1.6 3.2 0.00 0.00 0.00 89 1015.3
20260510033104 10 152 0.0 3.2 0.00 0.00 0.00 89 1015.6
20260510032604 10 306 1.6 3.2 0.00 0.00 0.00 89 1015.5
20260510032104 10 267 1.6 4.8 0.00 0.00 0.00 89 1015.6
20260510031604 10 274 1.6 4.8 0.00 0.00 0.00 89 1015.8
20260510031104 10 211 1.6 3.2 0.00 0.00 0.00 89 1015.6
20260510030604 10 282 1.6 3.2 0.00 0.00 0.00 89 1015.6
20260510030104 10 310 1.6 3.2 0.00 0.00 0.00 89 1015.6
20260510025104 10 299 1.6 3.2 0.00 0.00 0.00 89 1015.6
20260510024604 10 303 1.6 3.2 0.00 0.00 0.00 89 1015.9
20260510024104 10 284 1.6 3.2 0.00 0.00 0.00 89 1015.6
20260510023605 10 311 1.6 4.8 0.00 0.00 0.00 89 1015.6
20260510023104 10 283 0.0 3.2 0.00 0.00 0.00 88 1015.6
20260510022104 10 281 1.6 3.2 0.00 0.00 0.00 88 1015.8
20260510021604 10 210 0.0 3.2 0.00 0.00 0.00 88 1015.7
20260510021104 10 264 0.0 3.2 0.00 0.00 0.00 88 1015.8
20260510020604 10 286 1.6 4.8 0.00 0.00 0.00 87 1015.7
20260510020105 10 284 1.6 8.0 0.00 0.00 0.00 87 1015.9
20260510015605 10 289 0.0 3.2 0.00 0.00 0.00 87 1015.7
20260510015105 10 238 0.0 3.2 0.00 0.00 0.00 87 1015.6
20260510014604 10 264 0.0 3.2 0.00 0.00 0.00 87 1015.6
20260510013604 10 304 3.2 4.8 0.00 0.00 0.00 86 1015.9
20260510012605 10 320 1.6 3.2 0.00 0.00 0.00 86 1015.9
20260510011605 10 339 0.0 3.2 0.00 0.00 0.00 85 1016.0
20260510011104 10 309 1.6 3.2 0.00 0.00 0.00 85 1016.2
20260510010604 10 278 1.6 3.2 0.00 0.00 0.00 85 1015.9
20260510010106 10 297 1.6 3.2 0.00 0.00 0.00 84 1015.9
20260510005605 10 298 1.6 3.2 0.00 0.00 0.00 84 1015.9
20260510004604 10 60 0.0 3.2 0.00 0.00 0.00 84 1015.9
20260510004104 10 311 1.6 3.2 0.00 0.00 0.00 83 1016.3
20260510003604 10 291 0.0 3.2 0.00 0.00 0.00 83 1016.0
20260510003104 10 325 1.6 3.2 0.00 0.00 0.00 82 1016.3
20260510002604 10 307 0.0 3.2 0.00 0.00 0.00 82 1016.3
20260510002104 10 322 1.6 3.2 0.00 0.00 0.00 81 1016.3
20260510001604 10 304 0.0 1.6 0.00 0.00 0.00 81 1016.3
20260510001105 10 306 0.0 1.6 0.00 0.00 0.00 81 1016.2
20260510000604 10 264 0.0 1.6 0.00 0.00 0.00 80 1016.3
20260510000104 10 311 1.6 3.2 0.00 0.00 0.00 80 1016.6
20260509235106 11 311 0.0 3.2 0.00 0.00 0.00 79 1016.5
20260509234105 11 298 0.0 3.2 0.00 0.00 0.00 78 1016.5
20260509233604 11 317 1.6 3.2 0.00 0.00 0.00 77 1016.6
20260509233104 11 313 1.6 3.2 0.00 0.00 0.00 77 1016.5
20260509232104 11 313 0.0 3.2 0.00 0.00 0.00 76 1016.4
20260509231604 11 302 1.6 3.2 0.00 0.00 0.00 75 1016.5
20260509230605 11 282 0.0 3.2 0.00 0.00 0.00 74 1016.6
20260509230105 11 283 0.0 1.6 0.00 0.00 0.00 74 1016.5
20260509225105 11 250 0.0 1.6 0.00 0.00 0.00 72 1016.3
20260509224604 11 323 0.0 1.6 0.00 0.00 0.00 72 1016.6
20260509224104 11 292 1.6 1.6 0.00 0.00 0.00 71 1016.6
20260509223604 11 282 1.6 1.6 0.00 0.00 0.00 71 1016.5
20260509223104 12 18 0.0 1.6 0.00 0.00 0.00 71 1016.6
20260509222104 12 323 0.0 3.2 0.00 0.00 0.00 70 1016.4
20260509221604 12 319 1.6 3.2 0.00 0.00 0.00 70 1016.6
20260509220604 12 110 0.0 1.6 0.00 0.00 0.00 70 1016.4
20260509220105 12 274 0.0 1.6 0.00 0.00 0.00 69 1016.6
20260509215604 12 281 0.0 1.6 0.00 0.00 0.00 69 1016.6
20260509214604 12 252 0.0 3.2 0.00 0.00 0.00 68 1016.5
20260509214105 12 284 1.6 3.2 0.00 0.00 0.00 68 1016.4
20260509213605 13 133 0.0 3.2 0.00 0.00 0.00 68 1016.6
20260509213104 13 296 1.6 3.2 0.00 0.00 0.00 68 1016.5
20260509212604 13 235 0.0 3.2 0.00 0.00 0.00 67 1016.4
20260509212105 13 320 1.6 3.2 0.00 0.00 0.00 67 1016.3
20260509211104 13 278 1.6 3.2 0.00 0.00 0.00 67 1016.3
20260509210605 13 226 0.0 1.6 0.00 0.00 0.00 67 1016.3
20260509210105 13 228 1.6 3.2 0.00 0.00 0.00 67 1016.3
20260509205605 13 296 0.0 1.6 0.00 0.00 0.00 67 1016.3
20260509205104 13 300 1.6 1.6 0.00 0.00 0.00 66 1016.3
20260509204604 13 292 1.6 1.6 0.00 0.00 0.00 66 1016.3
20260509204106 13 185 0.0 3.2 0.00 0.00 0.00 65 1016.3
20260509203604 13 260 1.6 3.2 0.00 0.00 0.00 65 1016.3
20260509202604 14 269 0.0 1.6 0.00 0.00 0.00 64 1016.3
20260509201604 14 237 0.0 1.6 0.00 0.00 0.00 63 1016.3
20260509201104 15 286 1.6 1.6 0.00 0.00 0.00 62 1016.5
20260509200604 15 275 0.0 3.2 0.00 0.00 0.00 61 1016.0
20260509200104 15 261 1.6 3.2 0.00 0.00 0.00 61 1016.3
20260509194604 15 269 0.0 3.2 0.00 0.00 0.00 59 1015.9
20260509194104 15 268 0.0 3.2 0.00 0.00 0.00 59 1016.2
20260509193604 15 264 1.6 3.2 0.00 0.00 0.00 59 1016.3
20260509191604 16 289 1.6 3.2 0.00 0.00 0.00 57 1016.3
20260509191104 16 278 1.6 1.6 0.00 0.00 0.00 57 1015.9